Theta_e
324 323 322 322 323 324 323 322 322 322 322 322 322 323 323 324 325 326 327 328 328 327 327 327 326 326 326 325 325 325 324 324 324 324 324 323 323 323 323 322 322 322
323 323 322 322 321 322 322 321 321 321 321 321 322 321 322 323 324 325 326 327 327 327 327 327 327 326 326 325 325 325 324 324 323 324 323 323 323 323 323 322 322 322
321 321 321 320 319 319 319 320 320 320 320 320 320 321 321 320 321 321 325 326 326 326 326 327 326 326 326 325 325 324 324 323 323 323 322 322 323 322 323 323 323 322
317 318 318 318 317 317 317 317 316 318 317 318 318 320 321 322 321 321 321 319 324 325 325 325 325 326 325 325 325 324 324 323 324 323 322 322 322 322 322 322 322 322
314 314 314 314 315 316 315 315 315 315 315 316 316 316 318 318 319 319 320 320 321 322 323 324 324 324 325 325 324 324 323 323 323 323 322 322 322 322 322 322 321 321
312 312 312 313 313 312 313 313 313 313 313 313 315 316 316 316 317 318 318 319 320 321 322 322 323 323 323 323 324 324 323 323 323 322 322 321 322 322 322 321 321 320
311 311 311 311 311 311 311 311 312 311 312 313 312 313 313 315 315 317 317 318 319 320 321 321 321 322 322 323 322 322 323 323 322 322 321 322 321 321 321 321 320 320
311 310 311 310 310 310 310 310 310 311 310 310 310 312 312 313 314 315 316 317 317 318 319 320 320 321 321 321 321 321 321 322 322 321 321 321 321 320 320 321 321 320
309 308 308 308 308 308 307 308 309 308 309 309 309 309 310 312 312 313 314 315 316 317 318 318 319 319 320 321 321 321 320 321 321 321 321 320 319 319 319 320 319 319
306 306 306 306 305 306 305 305 307 307 306 306 307 308 309 309 310 311 312 313 314 315 315 316 317 318 319 319 321 320 320 320 320 320 320 320 320 319 319 318 318 318
303 303 303 303 303 304 303 304 303 303 304 305 305 306 307 307 308 307 309 310 312 313 314 315 316 317 318 318 319 319 319 320 320 320 320 320 320 319 313 318 318 317
300 299 300 301 302 301 301 301 301 301 301 302 303 304 303 304 305 305 307 308 308 310 310 312 313 313 314 315 316 317 317 318 318 318 319 320 320 320 320 319 319 319
297 298 299 298 298 298 297 298 298 297 297 298 297 298 299 300 299 301 303 304 307 307 309 310 312 311 313 313 314 315 316 316 316 316 316 318 319 320 320 320 320 319
296 294 295 296 296 297 297 296 295 295 295 295 295 296 296 296 297 300 300 299 303 304 307 308 307 307 308 310 311 312 313 314 314 315 315 317 318 318 318 318 318 318
294 294 296 296 295 296 295 295 295 294 295 295 294 294 297 294 297 298 295 296 297 299 300 303 307 309 310 304 305 308 309 310 312 312 311 313 315 315 316 317 318 319
294 295 295 295 295 294 293 292 292 293 293 293 293 292 291 291 291 293 294 295 295 296 297 301 304 308 294 295 296 302 305 308 309 308 308 308 307 308 310 311 313 316
293 293 292 292 291 291 291 291 292 291 291 291 291 291 292 292 293 296 297 298 297 297 297 300 302 303 295 298 298 298 300 304 305 307 309 307 307 308 308 306 308 310
293 292 291 291 290 290 290 289 289 289 289 288 288 290 293 295 295 296 297 297 299 299 300 300 301 290 293 293 294 295 295 299 303 304 306 307 306 306 306 306 306 306
291 291 291 289 289 289 289 289 289 289 288 288 288 290 293 294 295 295 295 296 296 297 297 297 294 290 292 292 292 293 293 293 298 302 304 303 302 303 304 305 305 305
290 289 289 288 288 289 289 289 289 288 289 289 290 292 293 294 295 295 295 295 296 296 296 293 289 290 291 291 292 292 293 293 296 299 301 301 301 302 303 303 303 303
289 288 288 287 287 287 288 288 287 288 288 287 290 292 292 292 293 293 294 293 294 294 293 290 289 290 291 291 292 292 293 293 297 300 299 299 300 301 301 300 298 298
288 287 286 286 286 286 287 287 287 285 287 289 289 290 292 291 293 293 292 292 291 291 292 290 289 290 290 291 291 291 291 293 296 296 296 296 297 296 295 294 293 293
287 287 286 285 286 286 285 286 285 285 287 289 289 289 290 291 292 291 290 290 289 289 290 289 288 288 290 290 290 291 290 289 291 293 295 295 293 293 293 292 291 290
286 285 285 285 284 286 285 283 285 287 287 288 287 288 288 290 290 290 289 288 288 288 288 288 286 286 289 289 290 290 289 288 289 290 292 292 292 292 291 291 289 286
284 284 284 284 285 284 284 284 285 286 286 287 287 288 289 289 289 289 287 285 284 285 286 287 284 284 288 289 289 290 289 289 290 289 289 289 289 289 289 289 290 288
283 283 283 283 283 283 284 286 286 286 286 286 287 288 287 287 287 286 284 284 283 283 284 282 282 282 285 289 289 289 290 289 288 287 287 288 288 288 289 290 290 289
Wind_Speed
8 7 8 7 7 7 6 6 6 6 6 6 7 8 8 8 8 9 10 11 12 12 12 12 11 12 11 11 11 11 11 12 11 10 11 12 12 12 12 12 12 12
8 8 7 6 6 6 6 6 6 6 7 7 7 6 6 6 6 8 9 10 11 12 11 11 11 11 11 10 10 11 11 10 12 9 11 13 12 11 13 13 13 12
7 6 7 7 7 5 6 5 6 6 7 7 5 5 6 4 5 5 6 8 9 10 10 10 10 10 10 10 11 11 11 11 12 10 11 12 11 11 11 11 11 13
6 7 6 5 5 5 4 4 5 5 4 6 5 5 5 5 5 6 5 5 6 7 7 8 9 9 10 11 10 10 11 11 11 10 11 10 11 11 11 10 11 11
6 5 5 4 4 5 5 5 6 6 5 5 4 4 5 5 5 5 6 6 6 6 6 7 8 9 9 9 10 10 10 10 10 10 11 11 11 11 11 10 11 12
5 5 5 5 5 5 6 5 5 5 5 5 6 5 5 5 5 5 5 6 6 7 7 7 7 7 8 9 9 10 10 9 9 10 11 12 11 10 9 10 12 13
5 5 5 4 5 4 5 5 4 4 4 5 4 5 4 4 5 5 6 6 6 6 7 7 7 8 7 8 9 10 10 10 10 10 12 12 11 12 11 11 12 13
6 5 5 4 4 4 4 5 4 4 4 4 4 5 4 5 5 5 5 5 5 6 6 6 7 7 7 7 9 10 10 8 9 10 12 12 10 12 11 10 11 12
5 5 4 4 4 4 4 4 4 4 3 4 4 4 4 4 5 5 5 5 5 6 6 6 7 7 7 7 9 10 10 10 10 10 11 12 12 12 11 10 11 12
5 4 4 4 5 4 5 5 4 4 3 3 4 4 4 4 4 4 4 5 5 6 6 6 6 6 7 7 8 9 9 10 9 10 10 11 11 11 10 9 11 11
5 5 5 5 5 4 5 5 4 4 3 4 4 4 4 4 4 4 4 5 6 5 5 6 6 6 6 7 7 7 8 9 8 9 9 10 10 10 10 10 10 10
5 5 5 5 6 5 5 5 4 4 4 3 3 4 4 4 4 4 4 5 5 5 5 5 5 5 5 6 6 6 7 7 7 8 9 9 9 10 10 10 10 11
5 6 6 5 5 5 3 2 1 2 3 4 4 4 4 4 4 4 5 5 6 5 6 5 6 5 5 5 5 5 5 6 7 7 7 8 8 9 9 9 10 10
5 5 5 5 4 2 1 1 2 3 3 3 2 3 3 4 4 4 5 4 5 5 5 5 5 5 4 4 4 4 4 5 5 6 7 7 7 7 7 7 7 7
4 4 3 3 2 1 2 2 3 2 1 1 1 2 2 3 3 3 4 4 5 5 6 6 5 5 3 4 5 5 5 5 5 4 5 5 6 6 6 7 7 8
4 3 3 2 1 2 3 3 3 1 1 1 1 1 2 3 3 4 4 4 4 5 5 6 6 4 5 8 6 4 5 5 5 5 5 5 5 5 5 5 6 6
4 4 4 4 4 3 3 4 3 2 2 1 1 2 1 2 2 3 2 3 4 4 4 4 5 5 12 11 11 10 6 5 5 6 6 5 5 5 5 5 5 6
5 4 4 5 4 4 4 4 4 3 3 3 3 3 3 2 2 2 3 3 4 4 4 4 2 10 11 12 12 13 11 7 6 5 6 6 5 5 5 4 4 4
5 5 5 4 4 4 4 3 2 2 3 3 3 2 2 0 2 3 2 3 3 3 3 2 4 6 7 8 9 10 12 10 6 6 6 5 5 6 6 6 5 5
5 4 4 4 3 3 3 2 2 2 1 2 2 1 1 0 0 0 3 2 1 1 1 5 4 5 6 5 5 5 6 6 4 6 5 4 5 5 5 6 6 6
5 4 4 4 3 3 2 2 3 1 2 3 3 3 2 1 1 2 1 3 4 3 3 5 4 7 6 6 5 5 5 3 1 3 3 4 5 5 4 4 5 5
5 5 4 4 4 3 3 3 3 3 3 3 2 1 3 3 1 3 3 3 3 3 4 4 4 8 7 6 8 8 7 2 1 1 1 2 3 5 6 6 6 6
5 5 4 4 4 4 4 4 4 4 4 3 2 1 0 2 5 3 3 3 2 2 4 4 5 7 8 8 9 10 5 3 2 1 1 1 3 3 3 4 5 6
5 5 5 4 4 4 4 4 4 3 4 3 3 2 2 3 3 4 3 3 3 3 2 5 5 7 10 10 11 10 5 3 3 2 2 4 3 3 2 3 5 10
4 4 4 4 4 4 4 4 4 4 4 2 2 2 4 2 3 5 5 3 4 4 6 6 4 5 8 9 12 12 6 4 5 5 5 5 4 4 3 3 3 7
4 4 4 4 4 4 4 4 4 5 5 4 4 4 5 4 4 6 6 5 4 5 5 4 4 4 6 10 11 13 11 6 4 5 5 4 3 3 5 5 5 4
Wind_Direction
203 202 207 206 209 205 205 207 208 208 210 210 209 216 213 214 207 203 205 208 213 216 215 216 215 217 219 220 220 222 223 223 225 223 225 226 229 225 224 221 220 223
198 197 197 200 206 205 211 203 207 206 217 221 222 220 224 216 216 206 208 209 212 217 215 215 215 216 216 218 219 222 225 225 228 222 227 226 228 226 228 223 223 225
191 191 192 197 199 202 204 206 203 210 214 223 228 228 233 227 231 224 216 214 215 218 217 216 216 216 217 218 219 222 225 225 229 225 227 229 225 225 228 225 226 224
188 186 190 196 195 205 211 215 230 227 224 228 230 231 228 236 235 238 240 226 224 224 218 214 216 215 217 219 218 224 226 228 229 225 229 230 227 225 224 219 225 225
178 180 179 184 197 204 207 213 227 230 229 230 239 239 236 240 240 240 236 240 235 234 222 219 215 217 214 219 218 227 227 231 230 227 231 233 230 226 230 224 224 225
167 174 187 194 203 203 215 219 227 227 232 244 241 241 241 239 240 238 235 235 234 233 232 226 222 219 216 220 221 227 227 229 229 224 231 233 233 226 227 224 226 228
181 185 196 198 201 205 212 225 230 227 230 231 241 247 241 245 243 244 244 240 239 235 232 232 228 230 221 222 225 230 229 230 229 224 231 235 234 236 233 232 230 231
187 186 189 187 195 210 213 224 227 226 226 241 239 248 240 245 246 248 245 243 242 241 238 235 233 230 225 220 226 230 233 229 230 228 232 236 233 238 234 233 235 236
175 179 176 190 199 220 227 233 240 240 242 244 253 262 262 253 254 255 254 251 248 244 241 240 236 235 228 222 226 227 230 229 228 228 231 235 236 239 237 233 235 236
165 174 173 192 198 215 220 233 233 240 244 252 257 262 264 264 263 264 266 261 256 254 248 246 245 240 236 228 228 226 229 231 228 229 231 235 237 240 238 233 236 238
174 173 180 195 206 210 218 220 224 229 240 240 251 259 259 266 272 271 275 275 270 265 260 255 248 244 243 240 235 229 229 230 229 228 232 235 238 240 239 237 239 239
181 186 192 201 203 206 210 213 216 222 234 254 247 261 275 278 275 280 270 271 270 273 273 271 268 258 251 247 244 240 236 233 229 228 232 234 235 236 238 238 242 244
189 196 198 200 198 198 191 182 218 248 258 256 260 256 267 275 283 282 282 278 278 280 278 280 281 279 274 273 268 262 252 244 241 239 237 236 237 237 235 235 239 244
206 202 202 202 180 150 155 208 226 240 239 250 265 280 276 277 282 285 285 294 290 292 291 297 298 302 300 294 296 299 294 278 265 253 247 241 240 237 234 235 235 237
209 208 187 159 151 181 205 218 221 221 221 269 314 295 304 300 318 329 338 330 329 325 323 319 313 301 315 358 351 345 340 328 321 314 306 282 262 249 239 238 241 240
199 183 165 165 196 224 238 246 244 237 241 290 293 304 320 340 357 357 347 334 330 332 333 330 322 326 17 8 16 7 333 329 324 315 315 314 316 306 290 271 250 244
177 180 174 192 206 202 220 221 226 229 220 230 262 274 316 337 340 328 314 315 322 320 321 319 317 320 342 346 339 341 332 317 315 311 308 304 303 300 298 305 305 297
190 189 190 204 189 205 204 207 195 182 197 214 215 216 213 204 226 244 252 254 259 253 263 265 277 20 14 3 353 347 340 323 299 291 294 299 305 306 304 307 307 311
190 190 196 198 206 205 195 164 169 191 209 209 201 154 91 161 234 229 239 258 255 255 254 291 62 19 32 17 9 356 352 343 313 293 281 271 274 281 290 296 301 299
186 183 198 211 214 199 171 180 181 213 204 130 108 99 159 186 310 319 257 255 279 321 318 70 48 18 21 25 15 11 348 345 296 298 291 287 278 273 273 274 272 275
176 179 190 208 197 177 178 192 206 184 86 67 66 49 11 292 264 273 2 41 45 10 70 79 42 11 19 8 10 359 343 325 313 310 317 314 309 306 315 331 351 347
173 175 176 180 180 182 178 198 167 127 105 90 96 225 232 246 233 89 60 59 38 32 80 86 30 21 16 17 13 2 341 314 344 21 347 346 353 11 16 18 14 10
163 160 168 173 176 170 181 162 133 121 126 128 176 196 251 105 107 106 99 105 82 65 90 88 44 14 18 25 19 8 359 329 328 340 344 56 71 75 69 60 45 28
155 155 165 175 170 176 162 140 126 127 131 137 148 167 117 103 102 118 114 97 95 74 86 85 50 17 26 27 22 15 2 346 332 337 348 56 62 47 52 76 76 66
153 153 163 166 171 162 145 144 142 143 125 150 176 138 130 146 147 130 118 106 82 69 72 86 65 24 23 31 33 33 24 8 20 32 47 29 26 18 5 65 64 66
144 152 164 160 160 145 138 137 131 143 168 165 172 164 172 171 144 116 117 105 92 79 80 91 87 41 24 31 40 45 45 39 35 45 43 15 351 22 50 43 46 53